EW9542 Weather Reports


time (UTC)temp
C
wind
direction
speed
KPH
gust
KPH
rain 1hr
cm
rain 24hr
cm
rain mn
cm
humidity
%
barometer
mb
20260507213529 20 47 3.2 6.4 0.00 0.00 0.00 35 1007.3
20260507212528 20 176 3.2 6.4 0.00 0.00 0.00 35 1007.1
20260507211525 20 129 4.8 11.3 0.00 0.00 0.00 33 1007.1
20260507210523 20 81 6.4 11.3 0.00 0.00 0.00 35 1007.3
20260507205521 20 82 8.0 14.5 0.00 0.00 0.00 36 1007.2
20260507204518 19 96 6.4 12.9 0.00 0.00 0.00 37 1007.3
20260507203516 20 6 4.8 9.7 0.00 0.00 0.00 36 1007.4
20260507202529 20 293 3.2 6.4 0.00 0.00 0.00 35 1007.4
20260507201527 21 215 4.8 12.9 0.00 0.00 0.00 33 1007.3
20260507200524 21 177 4.8 9.7 0.00 0.00 0.00 34 1007.3
20260507195542 20 130 6.4 11.3 0.00 0.00 0.00 35 1007.6
20260507194520 20 151 3.2 8.0 0.00 0.00 0.00 36 1007.8
20260507193518 19 46 3.2 6.4 0.00 0.00 0.00 35 1008.0
20260507192530 20 71 4.8 11.3 0.00 0.00 0.00 35 1008.0
20260507191548 21 171 4.8 9.7 0.00 0.00 0.00 35 1008.0
20260507190526 20 86 6.4 14.5 0.00 0.00 0.00 35 1008.1
20260507185523 19 103 4.8 8.0 0.00 0.00 0.00 35 1008.3
20260507184521 19 106 8.0 14.5 0.00 0.00 0.00 36 1008.5
20260507183519 18 104 9.7 19.3 0.00 0.00 0.00 37 1008.6
20260507182518 19 21 6.4 9.7 0.00 0.00 0.00 36 1008.6
20260507181549 19 5 11.3 19.3 0.00 0.00 0.00 37 1008.5
20260507180547 18 360 4.8 16.1 0.00 0.00 0.00 35 1008.8
20260507175525 18 3 4.8 9.7 0.00 0.00 0.00 37 1008.9
20260507174523 20 334 6.4 16.1 0.00 0.00 0.00 35 1009.3
20260507173520 18 316 4.8 11.3 0.00 0.00 0.00 38 1009.5
20260507172518 18 107 4.8 11.3 0.00 0.00 0.00 37 1009.5
20260507171531 18 77 11.3 19.3 0.00 0.00 0.00 37 1009.8
20260507170548 17 330 6.4 14.5 0.00 0.00 0.00 39 1009.9
20260507165606 17 266 6.4 11.3 0.00 0.00 0.00 38 1010.1
20260507164544 17 310 8.0 19.3 0.00 0.00 0.00 38 1010.4
20260507163521 17 342 4.8 16.1 0.00 0.00 0.00 38 1010.6
20260507162521 17 285 9.7 20.9 0.00 0.00 0.00 39 1010.7
20260507161517 17 321 9.7 20.9 0.00 0.00 0.00 38 1010.9
20260507160530 16 0 8.0 16.1 0.00 0.00 0.00 38 1011.0
20260507155528 16 18 6.4 16.1 0.00 0.00 0.00 38 1011.2
20260507154525 16 46 6.4 16.1 0.00 0.00 0.00 37 1011.3
20260507153523 16 27 9.7 17.7 0.00 0.00 0.00 39 1011.5
20260507152521 15 69 8.0 17.7 0.00 0.00 0.00 40 1011.6
20260507151519 15 36 9.7 20.9 0.00 0.00 0.00 40 1011.8
20260507150516 15 27 6.4 12.9 0.00 0.00 0.00 41 1011.9
20260507145529 15 354 11.3 22.5 0.00 0.00 0.00 42 1012.1
20260507144527 14 344 8.0 14.5 0.00 0.00 0.00 43 1012.2
20260507143524 14 346 9.7 22.5 0.00 0.00 0.00 44 1012.4
20260507142522 13 4 8.0 14.5 0.00 0.00 0.00 49 1012.4
20260507141520 13 34 8.0 12.9 0.00 0.00 0.00 49 1012.6
20260507140518 13 26 4.8 9.7 0.00 0.00 0.00 51 1012.8
20260507135530 12 30 6.4 12.9 0.00 0.00 0.00 51 1013.0
20260507134548 12 19 6.4 9.7 0.00 0.00 0.00 51 1013.2
20260507133546 12 35 6.4 9.7 0.00 0.00 0.00 53 1013.3
20260507132604 12 1 6.4 11.3 0.00 0.00 0.00 55 1013.5
20260507131521 12 18 4.8 9.7 0.00 0.00 0.00 55 1013.4
20260507130540 12 15 6.4 12.9 0.00 0.00 0.00 55 1013.3
20260507125517 12 24 4.8 8.0 0.00 0.00 0.00 55 1013.3
20260507124529 12 32 4.8 9.7 0.00 0.00 0.00 55 1013.2
20260507123527 12 40 4.8 8.0 0.00 0.00 0.00 55 1013.3
20260507122525 12 42 4.8 8.0 0.00 0.00 0.00 54 1013.2
20260507121522 11 31 4.8 11.3 0.00 0.00 0.00 55 1013.1
20260507120521 11 34 6.4 14.5 0.00 0.00 0.00 56 1013.0
20260507115518 11 29 4.8 6.4 0.00 0.00 0.00 58 1013.0
20260507114530 11 29 4.8 8.0 0.00 0.00 0.00 58 1012.9
20260507113528 12 22 3.2 6.4 0.00 0.00 0.00 62 1012.9
20260507112526 12 25 4.8 8.0 0.00 0.00 0.00 63 1012.8
20260507111523 12 40 6.4 8.0 0.00 0.00 0.00 64 1012.6
20260507110521 12 36 6.4 9.7 0.00 0.00 0.00 66 1012.5
20260507105538 12 32 6.4 9.7 0.00 0.00 0.00 66 1012.6
20260507104516 12 42 6.4 9.7 0.00 0.00 0.00 69 1012.4
20260507103529 12 44 4.8 6.4 0.00 0.00 0.00 72 1012.2
20260507102527 12 22 3.2 3.2 0.00 0.00 0.00 72 1012.1
20260507101524 12 19 3.2 4.8 0.00 0.00 0.00 70 1012.1
20260507100522 12 23 3.2 6.4 0.00 0.00 0.00 70 1011.9
20260507095520 12 14 4.8 6.4 0.00 0.00 0.00 70 1011.8
20260507094517 12 22 4.8 6.4 0.00 0.00 0.00 69 1011.9
20260507093530 12 24 4.8 6.4 0.00 0.00 0.00 69 1011.9
20260507092528 12 31 4.8 8.0 0.00 0.00 0.00 70 1011.7
20260507091526 12 20 3.2 6.4 0.00 0.00 0.00 71 1011.7
20260507090523 12 22 4.8 6.4 0.00 0.00 0.00 71 1011.6
20260507085521 12 19 3.2 4.8 0.00 0.00 0.00 70 1011.7
20260507084538 12 18 4.8 9.7 0.00 0.00 0.00 70 1011.6
20260507083516 12 35 4.8 6.4 0.00 0.00 0.00 70 1011.8
20260507082528 12 19 3.2 4.8 0.00 0.00 0.00 70 1011.8
20260507081526 12 0 3.2 9.7 0.00 0.00 0.00 70 1011.7
20260507080524 12 9 4.8 9.7 0.00 0.00 0.00 73 1011.6
20260507075521 12 18 1.6 3.2 0.00 0.00 0.00 71 1011.6
20260507074519 12 43 3.2 6.4 0.00 0.00 0.00 70 1011.3
20260507073517 12 16 3.2 4.8 0.00 0.00 0.00 70 1011.3
20260507072529 12 8 3.2 4.8 0.00 0.00 0.00 70 1011.1
20260507071527 12 12 3.2 4.8 0.00 0.00 0.00 70 1011.2
20260507070525 13 13 3.2 4.8 0.00 0.00 0.00 69 1011.2
20260507065522 13 10 3.2 4.8 0.00 0.00 0.00 68 1011.3
20260507064520 13 10 3.2 6.4 0.00 0.00 0.00 68 1011.3
20260507063518 13 17 4.8 9.7 0.00 0.00 0.00 68 1011.3
20260507062550 13 18 4.8 8.0 0.00 0.00 0.00 68 1011.5
20260507061528 13 16 3.2 6.4 0.00 0.00 0.00 69 1011.8
20260507060526 13 6 4.8 9.7 0.00 0.00 0.00 68 1012.0
20260507055524 13 2 6.4 9.7 0.00 0.00 0.00 67 1012.2
20260507054521 13 20 6.4 11.3 0.00 0.00 0.00 67 1011.9
20260507053519 13 26 4.8 9.7 0.00 0.00 0.00 68 1011.9
20260507052516 13 16 4.8 9.7 0.00 0.00 0.00 67 1011.8
20260507051549 13 19 4.8 11.3 0.00 0.00 0.00 68 1011.5
20260507050547 13 13 9.7 14.5 0.00 0.00 0.00 68 1011.5
20260507045544 13 2 8.0 12.9 0.00 0.00 0.00 71 1011.6
20260507044522 14 12 8.0 16.1 0.00 0.00 0.00 73 1011.4
20260507043520 14 28 6.4 11.3 0.00 0.00 0.00 73 1011.2
20260507042517 14 28 6.4 11.3 0.00 0.00 0.00 73 1010.6
20260507041530 14 33 8.0 14.5 0.00 0.00 0.00 72 1010.9
20260507040548 14 44 6.4 9.7 0.00 0.00 0.00 72 1011.1
20260507035525 15 26 8.0 14.5 0.00 0.00 0.00 72 1010.9
20260507034523 15 44 3.2 6.4 0.00 0.00 0.00 71 1010.7
20260507033521 15 39 4.8 9.7 0.00 0.00 0.00 71 1011.2
20260507032520 15 36 6.4 11.3 0.00 0.00 0.00 70 1011.3
20260507031516 15 19 8.0 16.1 0.00 0.00 0.00 70 1011.1
20260507030529 15 23 6.4 12.9 0.00 0.00 0.00 70 1010.6
20260507025527 15 54 6.4 9.7 0.00 0.00 0.00 70 1010.7
20260507024524 16 35 8.0 19.3 0.00 0.00 0.00 69 1011.0
20260507023522 16 18 8.0 14.5 0.00 0.00 0.00 69 1010.9
20260507022520 16 18 6.4 11.3 0.00 0.00 0.00 70 1010.8
20260507021538 16 25 6.4 9.7 0.00 0.00 0.00 70 1010.1
20260507020530 16 53 8.0 16.1 0.00 0.00 0.00 69 1010.1
20260507015548 16 49 4.8 9.7 0.00 0.00 0.00 69 1010.4
20260507014526 16 33 4.8 11.3 0.00 0.00 0.00 69 1010.4
20260507013524 17 18 8.0 14.5 0.00 0.00 0.00 69 1010.2
20260507012521 17 17 4.8 8.0 0.00 0.00 0.00 71 1010.0
20260507011519 17 46 8.0 16.1 0.00 0.00 0.00 70 1009.8
20260507010537 17 25 6.4 9.7 0.00 0.00 0.00 71 1009.8
20260507005529 17 38 6.4 11.3 0.00 0.00 0.00 73 1009.8
20260507004547 17 55 8.0 12.9 0.00 0.00 0.00 74 1009.7
20260507003525 17 31 6.4 8.0 0.00 0.00 0.00 74 1009.8
20260507002522 17 22 6.4 9.7 0.00 0.00 0.00 74 1009.5
20260507001540 17 35 6.4 9.7 0.00 0.00 0.00 76 1009.4
20260507000518 17 49 6.4 11.3 0.00 0.00 0.00 78 1009.5
20260506235530 17 19 6.4 11.3 0.00 0.00 0.00 79 1009.4
20260506234528 18 27 6.4 11.3 0.00 0.00 0.00 78 1009.2
20260506233526 19 9 8.0 12.9 0.00 0.00 0.00 72 1008.9
20260506232524 19 19 8.0 12.9 0.00 0.00 0.00 70 1008.8
20260506231541 20 45 8.0 17.7 0.00 0.00 0.00 70 1008.5
20260506230519 20 11 4.8 8.0 0.00 0.00 0.00 70 1008.6
20260506225517 20 6 9.7 14.5 0.00 0.00 0.00 69 1008.3
20260506224550 20 11 6.4 14.5 0.00 0.00 0.00 72 1008.2
20260506223527 21 38 6.4 11.3 0.00 0.00 0.00 74 1008.0
20260506222525 21 51 8.0 11.3 0.00 0.00 0.00 72 1007.8
20260506221523 21 48 6.4 9.7 0.00 0.00 0.00 71 1007.6
20260506220522 21 60 8.0 14.5 0.00 0.00 0.00 69 1007.6
20260506215519 22 46 4.8 6.4 0.00 0.00 0.00 68 1007.5
20260506214516 22 40 6.4 11.3 0.00 0.00 0.00 66 1007.2